| time (UTC) | temp C | wind direction | speed KPH | gust KPH | rain 1hr cm | rain 24hr cm | rain mn cm | humidity % | barometer mb |
| 20260505024522 | 13 | 25 | 0.0 | 0.0 | 0.00 | 0.97 | 0.97 | 89 | 997.7 |
| 20260505023056 | 13 | 55 | 0.0 | 1.6 | 0.00 | 0.97 | 0.97 | 89 | 997.4 |
| 20260505021526 | 13 | 26 | 0.0 | 1.6 | 0.03 | 0.97 | 0.97 | 88 | 997.0 |
| 20260505020059 | 13 | 22 | 0.0 | 0.0 | 0.13 | 0.97 | 0.97 | 89 | 997.0 |
| 20260505014523 | 13 | 13 | 0.0 | 6.4 | 0.69 | 0.97 | 0.97 | 90 | 997.4 |
| 20260505013106 | 13 | 20 | 0.0 | 0.0 | 0.71 | 0.97 | 0.97 | 89 | 997.2 |
| 20260505011532 | 13 | 22 | 0.0 | 3.2 | 0.69 | 0.94 | 0.94 | 88 | 998.1 |
| 20260505004544 | 16 | 200 | 0.0 | 11.3 | 0.03 | 0.28 | 0.28 | 73 | 998.2 |
| 20260505003007 | 17 | 37 | 0.0 | 4.8 | 0.00 | 0.25 | 0.25 | 80 | 996.4 |
| 20260505001550 | 16 | 17 | 0.0 | 3.2 | 0.05 | 0.25 | 0.25 | 84 | 996.2 |
| 20260505000034 | 16 | 38 | 0.0 | 0.0 | 0.23 | 0.25 | 0.25 | 83 | 996.0 |
| 20260504234552 | 16 | 19 | 0.0 | 1.6 | 0.25 | 0.25 | 0.25 | 81 | 996.4 |
| 20260504233028 | 17 | 74 | 0.0 | 6.4 | 0.25 | 0.25 | 0.25 | 79 | 996.9 |
| 20260504231504 | 20 | 5 | 0.0 | 4.8 | 0.18 | 0.18 | 0.18 | 68 | 996.8 |
| 20260504230048 | 21 | 19 | 0.0 | 1.6 | 0.03 | 0.03 | 0.03 | 59 | 996.4 |
| 20260504224510 | 22 | 30 | 0.0 | 14.5 | 0.00 | 0.00 | 0.00 | 51 | 996.7 |
| 20260504223047 | 23 | 14 | 0.0 | 6.4 | 0.00 | 0.00 | 0.00 | 44 | 996.5 |
| 20260504221522 | 25 | 205 | 0.0 | 4.8 | 0.00 | 0.00 | 0.00 | 36 | 996.4 |
| 20260504220101 | 26 | 192 | 0.0 | 8.0 | 0.00 | 0.00 | 0.00 | 35 | 996.4 |
| 20260504214533 | 27 | 5 | 0.0 | 6.4 | 0.00 | 0.00 | 0.00 | 35 | 996.6 |
| 20260504213006 | 27 | 9 | 0.0 | 1.6 | 0.00 | 0.00 | 0.00 | 34 | 996.6 |
| 20260504211544 | 26 | 175 | 0.0 | 3.2 | 0.00 | 0.00 | 0.00 | 35 | 996.8 |
| 20260504210011 | 26 | 204 | 0.0 | 8.0 | 0.00 | 0.00 | 0.00 | 34 | 997.2 |
| 20260504204543 | 26 | 201 | 0.0 | 1.6 | 0.00 | 0.00 | 0.00 | 35 | 997.4 |
| 20260504203013 | 25 | 236 | 0.0 | 6.4 | 0.00 | 0.00 | 0.00 | 37 | 997.5 |
| 20260504201549 | 25 | 209 | 0.0 | 9.7 | 0.00 | 0.00 | 0.00 | 37 | 997.8 |
| 20260504200019 | 25 | 51 | 0.0 | 12.9 | 0.00 | 0.00 | 0.00 | 40 | 997.9 |
| 20260504194555 | 25 | 5 | 0.0 | 4.8 | 0.00 | 0.00 | 0.00 | 40 | 997.9 |
| 20260504193027 | 25 | 194 | 0.0 | 4.8 | 0.00 | 0.00 | 0.00 | 44 | 997.9 |
| 20260504191608 | 24 | 40 | 0.0 | 6.4 | 0.00 | 0.00 | 0.00 | 44 | 998.0 |
| 20260504190030 | 24 | 161 | 0.0 | 3.2 | 0.00 | 0.00 | 0.00 | 46 | 998.4 |
| 20260504184502 | 23 | 319 | 0.0 | 8.0 | 0.00 | 0.00 | 0.00 | 48 | 998.7 |
| 20260504183031 | 23 | 16 | 0.0 | 3.2 | 0.00 | 0.00 | 0.00 | 48 | 998.8 |
| 20260504181504 | 23 | 289 | 0.0 | 3.2 | 0.00 | 0.00 | 0.00 | 47 | 999.0 |
| 20260504180037 | 23 | 46 | 0.0 | 3.2 | 0.00 | 0.00 | 0.00 | 46 | 999.1 |
| 20260504174510 | 23 | 5 | 0.0 | 8.0 | 0.00 | 0.00 | 0.00 | 45 | 999.3 |
| 20260504173042 | 22 | 215 | 0.0 | 4.8 | 0.00 | 0.00 | 0.00 | 45 | 999.3 |
| 20260504171513 | 22 | 168 | 0.0 | 3.2 | 0.00 | 0.00 | 0.00 | 45 | 999.6 |
| 20260504160104 | 20 | 15 | 0.0 | 1.6 | 0.00 | 0.00 | 0.00 | 43 | 1000.5 |
| 20260504081551 | 10 | 42 | 0.0 | 0.0 | 0.00 | 0.00 | 0.00 | 78 | 1002.3 |
| 20260504050010 | 11 | 42 | 0.0 | 1.6 | 0.00 | 0.00 | 0.00 | 73 | 1004.7 |
| 20260504044541 | 11 | 30 | 0.0 | 1.6 | 0.00 | 0.00 | 0.00 | 73 | 1004.7 |
| 20260504043015 | 11 | 34 | 0.0 | 1.6 | 0.00 | 0.00 | 0.00 | 72 | 1004.7 |
| 20260504041550 | 11 | 26 | 0.0 | 1.6 | 0.00 | 0.00 | 0.00 | 71 | 1004.7 |
| 20260504040022 | 12 | 30 | 0.0 | 3.2 | 0.00 | 0.00 | 0.00 | 70 | 1004.8 |
| 20260504034559 | 12 | 17 | 0.0 | 1.6 | 0.00 | 0.00 | 0.00 | 69 | 1004.9 |
| 20260504033037 | 12 | 44 | 0.0 | 1.6 | 0.00 | 0.00 | 0.00 | 68 | 1005.0 |
| 20260504031507 | 12 | 46 | 0.0 | 1.6 | 0.00 | 0.00 | 0.00 | 68 | 1005.2 |
| 20260504030042 | 12 | 77 | 0.0 | 1.6 | 0.00 | 0.00 | 0.00 | 67 | 1005.2 |